St. Louis, MO

5:43 PM CDT on May 25, 2017 (GMT -0500)
Lambert-Saint Louis International

Weather History for KSTL - June, 2013

Change the Weather History Date:

Tuesday, June 11, 2013

  Actual Average Record
Temperature  
Mean Temperature 78 °F 75 °F  
Max Temperature 92 °F 84 °F 98 °F (1933)
Min Temperature 64 °F 66 °F 45 °F (1972)
Degree Days  
Heating Degree Days 0 0  
Month to date heating degree days 1 3  
Since 1 June heating degree days 1 3  
Since 1 July heating degree days 4488 4533  
Cooling Degree Days 13 10  
Month to date cooling degree days 58 94  
Year to date cooling degree days 269 268  
Since 1 June cooling degree days 58 94  
Growing Degree Days 28 (Base 50)    
Moisture  
Dew Point 66 °F    
Average Humidity 67    
Maximum Humidity 87    
Minimum Humidity 47    
Precipitation  
Precipitation 0.00 in 0.15 in 2.02 in (2005)
Month to date precipitation 0.86 1.69  
Year to date precipitation 25.00 18.06  
Snow  
Snow 0.00 in 0.00 in 0.00 in (2015)
Month to date snowfall 0.0 0.0  
Since 1 June snowfall 0.0 0.0  
Since 1 July snowfall 27.9 17.7  
Snow Depth 0.00 in    
Sea Level Pressure  
Sea Level Pressure 29.89 in    
Wind  
Wind Speed 6 mph (SSW)    
Max Wind Speed 17 mph    
Max Gust Speed 24 mph    
Visibility 10 miles    
Events      
T = Trace of Precipitation, MM = Missing Value Source: NWS Daily Summary

Daily Weather History Graph

Daily Weather History Graph

Search for Another Location

Airport or City:

Trip Planner

Search our weather history database for the weather conditions in past years. The results will help you decide how hot, cold, wet, or windy it might be!

Date:

Astronomy

Jun. 11, 2013 Rise Set
Actual Time 5:36 AM CDT 8:26 PM CDT
Civil Twilight 5:04 AM CDT 8:58 PM CDT
Nautical Twilight 4:24 AM CDT 9:38 PM CDT
Astronomical Twilight 3:38 AM CDT 10:24 PM CDT
Moon 8:18 AM CDT (6/11) 10:31 PM CDT (6/11)
Length of Visible Light 15h 54m
Length of Day
14h 50m
Waxing Crescent, 8% of the Moon is Illuminated
Jun 11
Waxing Crescent
Jun 16
First Quarter
Jun 23
Full
Jun 29
Last Quarter
Jul 8
New

Hourly Weather History & Observations

Time (CDT) Temp. Heat Index Dew Point Humidity Pressure Visibility Wind Dir Wind Speed Gust Speed Precip Events Conditions
12:51 AM 68.0 °F - 61.0 °F 78% 29.91 in 10.0 mi Calm Calm - N/A   Clear
1:51 AM 66.9 °F - 60.1 °F 79% 29.91 in 10.0 mi Calm Calm - N/A   Clear
2:51 AM 66.0 °F - 60.1 °F 81% 29.92 in 10.0 mi Calm Calm - N/A   Clear
3:51 AM 64.9 °F - 60.1 °F 84% 29.91 in 10.0 mi Calm Calm - N/A   Clear
4:51 AM 64.9 °F - 60.1 °F 84% 29.92 in 10.0 mi Calm Calm - N/A   Scattered Clouds
5:51 AM 64.9 °F - 60.1 °F 84% 29.94 in 10.0 mi Calm Calm - N/A   Mostly Cloudy
6:51 AM 70.0 °F - 62.1 °F 76% 29.94 in 10.0 mi SSE 5.8 mph - N/A   Mostly Cloudy
7:51 AM 73.9 °F - 62.1 °F 66% 29.94 in 10.0 mi South 9.2 mph - N/A   Mostly Cloudy
8:51 AM 78.1 °F - 63.0 °F 60% 29.94 in 10.0 mi SSE 10.4 mph - N/A   Scattered Clouds
9:51 AM 80.1 °F 81.7 °F 64.0 °F 58% 29.91 in 10.0 mi South 13.8 mph - N/A   Mostly Cloudy
10:51 AM 82.9 °F 85.0 °F 66.0 °F 56% 29.90 in 10.0 mi South 10.4 mph - N/A   Mostly Cloudy
11:51 AM 86.0 °F 90.1 °F 69.1 °F 57% 29.89 in 10.0 mi South 5.8 mph 16.1 mph N/A   Mostly Cloudy
12:51 PM 90.0 °F 93.6 °F 68.0 °F 48% 29.88 in 10.0 mi SW 11.5 mph 19.6 mph N/A   Mostly Cloudy
1:51 PM 91.9 °F 96.9 °F 69.1 °F 47% 29.88 in 10.0 mi WSW 10.4 mph 18.4 mph N/A   Mostly Cloudy
2:51 PM 90.0 °F 92.8 °F 66.9 °F 46% 29.87 in 10.0 mi SW 11.5 mph - N/A   Mostly Cloudy
3:51 PM 90.0 °F 92.8 °F 66.9 °F 46% 29.87 in 10.0 mi WSW 6.9 mph - N/A   Mostly Cloudy
4:51 PM 90.0 °F 94.5 °F 69.1 °F 50% 29.87 in 10.0 mi SW 8.1 mph - N/A   Mostly Cloudy
5:51 PM 89.1 °F 92.9 °F 68.0 °F 50% 29.86 in 10.0 mi SSW 6.9 mph - N/A   Mostly Cloudy
6:51 PM 88.0 °F 92.1 °F 69.1 °F 53% 29.83 in 10.0 mi SSW 8.1 mph - N/A   Mostly Cloudy
7:51 PM 87.1 °F 92.8 °F 71.1 °F 59% 29.86 in 10.0 mi WSW 5.8 mph - N/A   Mostly Cloudy
8:51 PM 84.9 °F 90.1 °F 71.1 °F 63% 29.85 in 10.0 mi SSW 3.5 mph - N/A   Mostly Cloudy
9:51 PM 84.9 °F 90.1 °F 71.1 °F 63% 29.85 in 10.0 mi South 6.9 mph - N/A   Mostly Cloudy
10:51 PM 84.9 °F 90.7 °F 72.0 °F 65% 29.85 in 10.0 mi SSW 6.9 mph - N/A   Mostly Cloudy
11:51 PM 84.0 °F 89.0 °F 71.1 °F 65% 29.86 in 10.0 mi SSW 5.8 mph - N/A   Mostly Cloudy